SCP
-0 0 0 0 0 0 0 0 0 0 0 0 0 0 0 0 0 0 0 0 0 0 0 0 0 0 0 0 0 0 0 0 0 0 0 0 1 1 0 0 0 0 0 0
0 0 0 0 0 -0 0 0 0 0 0 0 0 0 0 0 0 0 0 0 0 0 0 0 0 0 0 0 0 0 0 0 0 0 0 1 1 1 0 0 0 0 0 0
0 0 0 0 -0 -0 0 0 0 0 0 0 0 0 0 0 0 0 0 0 0 0 0 0 0 0 0 0 0 0 0 0 0 0 0 0 1 0 0 0 0 0 0 0
0 0 0 0 0 0 0 0 0 0 0 0 0 0 0 0 0 0 0 0 0 0 0 0 0 0 0 0 0 0 0 0 0 0 0 0 0 0 0 0 0 0 0 0
0 0 0 0 0 0 0 0 0 0 0 0 0 0 0 0 0 0 0 1 1 1 1 0 0 0 0 0 0 0 0 0 0 0 0 0 0 0 0 0 0 0 0 0
0 0 0 0 0 0 0 0 0 0 0 0 0 0 0 0 0 0 0 1 1 1 1 0 0 0 0 0 0 0 0 0 0 0 0 0 0 0 0 0 0 0 0 0
0 0 0 0 0 0 0 0 0 0 0 0 0 0 0 0 0 0 1 1 1 1 1 0 0 0 0 0 0 0 0 0 0 0 0 0 0 0 0 0 0 0 0 0
0 0 0 0 0 0 0 0 0 0 0 0 0 0 0 0 0 0 1 1 1 1 0 0 0 0 0 0 0 0 0 0 0 0 0 0 0 0 0 0 0 0 0 0
0 0 0 0 0 0 0 0 0 0 0 0 0 0 0 0 0 0 0 1 1 0 0 0 0 0 0 0 0 0 0 0 0 0 0 0 0 0 0 0 0 0 0 0
0 0 0 0 0 0 0 0 0 0 0 0 0 0 0 0 0 0 0 0 0 0 0 0 0 0 0 0 0 0 0 0 0 0 0 0 0 0 0 0 0 0 0 0
0 0 0 0 0 0 0 0 0 0 0 0 0 0 0 0 0 0 0 0 0 0 0 0 0 0 0 0 0 0 0 0 0 0 0 0 0 0 0 0 0 0 0 0
0 0 0 0 0 0 0 0 0 0 0 0 0 0 0 0 0 0 0 0 0 0 0 0 0 0 0 0 0 0 0 0 0 0 0 0 0 0 0 0 0 0 0 0
0 0 0 0 0 0 0 0 0 0 0 0 0 0 0 0 0 0 0 0 0 0 0 0 0 0 0 0 0 0 0 0 0 0 0 0 0 0 0 0 0 0 0 0
0 0 0 0 0 0 0 0 0 0 0 0 0 0 0 0 0 0 0 0 0 0 0 0 0 0 0 0 0 0 0 0 0 0 0 0 0 0 0 0 0 0 0 0
0 0 0 0 0 0 0 0 0 0 0 0 0 0 0 0 0 0 0 0 0 0 0 0 0 0 0 0 0 0 0 0 0 0 0 0 0 0 0 0 0 0 0 0
0 0 0 0 0 0 0 0 0 0 0 0 0 0 0 0 0 0 0 0 0 0 0 0 0 0 0 0 0 0 0 0 0 0 0 0 0 0 0 0 0 0 0 0
0 0 0 0 0 0 0 0 0 0 0 0 0 0 0 0 0 0 0 0 0 0 0 0 0 0 0 0 0 0 0 0 0 0 0 0 0 0 0 0 0 0 0 0
0 0 0 0 0 0 0 0 0 0 0 0 0 0 0 0 0 0 0 0 0 0 0 0 0 0 0 0 0 0 0 0 0 0 0 0 0 0 0 0 0 0 0 0
0 0 0 0 0 0 0 0 0 0 0 0 0 0 0 0 0 0 0 0 0 0 0 0 0 0 0 0 0 0 0 0 0 0 0 0 0 0 0 0 0 0 0 0
0 0 0 0 0 0 0 0 0 0 0 0 0 0 0 0 0 0 0 0 0 0 0 0 0 0 0 0 0 0 0 0 0 0 0 0 0 0 0 0 0 0 0 0
0 0 0 0 0 0 0 0 0 0 0 0 0 0 0 0 0 0 0 0 0 0 0 0 0 0 0 0 0 0 0 0 0 0 0 0 0 0 0 0 0 0 0 0
0 0 0 0 0 0 0 0 0 0 0 0 0 0 0 0 0 0 0 0 0 0 0 0 0 0 0 0 0 0 0 0 0 0 0 0 0 0 0 0 0 0 0 0
0 0 0 0 0 0 0 0 0 0 0 0 0 0 0 0 0 0 0 0 0 0 0 0 0 0 0 0 0 0 0 0 0 0 0 0 0 0 0 0 0 0 0 0
0 0 0 0 0 0 0 0 0 0 0 0 0 0 0 0 0 0 0 0 0 0 0 0 0 0 0 0 0 0 0 0 0 0 0 0 0 0 0 0 0 0 0 0
0 0 0 0 0 0 0 0 0 0 0 0 0 0 0 0 0 0 0 0 0 0 0 0 0 0 0 0 0 0 0 0 0 0 0 0 0 0 0 0 0 0 0 0
0 0 0 0 0 0 0 0 0 0 0 0 0 0 0 0 0 0 0 0 0 0 0 0 0 0 0 0 0 0 0 0 0 0 0 0 0 0 0 0 0 0 0 0
Wind_Speed
7 9 9 7 5 2 5 7 8 6 5 7 7 9 9 9 9 10 9 9 8 8 8 8 7 7 7 7 6 6 6 5 3 2 2 2 3 3 4 4 5 4 4 4
9 8 4 5 5 5 7 8 8 7 5 4 7 8 8 9 10 10 10 9 9 9 9 8 7 7 7 6 6 6 5 5 4 2 2 2 3 3 4 4 4 5 5 4
6 6 6 7 9 9 8 8 7 8 8 6 7 8 9 8 8 8 9 8 9 9 10 8 7 7 7 7 6 5 5 5 5 3 2 3 3 3 3 3 4 5 4 4
4 5 7 9 9 9 8 5 5 8 9 8 10 7 11 11 11 11 10 9 9 9 9 8 8 7 6 6 6 6 6 6 5 4 4 3 3 3 3 2 3 3 4 5
6 6 8 8 7 8 3 5 7 8 7 6 9 8 8 12 12 13 12 11 10 10 10 9 8 8 7 6 6 6 6 6 6 6 6 4 4 4 3 3 3 3 4 4
4 4 4 3 3 4 5 7 6 8 9 10 7 8 5 8 8 10 12 12 11 11 11 10 9 8 7 7 6 6 7 7 7 7 7 6 6 5 5 4 3 2 3 3
8 8 6 5 7 8 9 9 8 9 9 6 4 7 1 4 1 5 10 12 13 12 11 10 9 8 8 7 7 7 8 8 7 7 7 6 6 5 5 4 4 4 3 4
8 9 7 5 6 6 10 11 8 6 7 4 6 6 4 5 2 4 9 12 13 12 11 10 9 9 8 7 7 7 7 7 7 7 6 5 4 3 4 5 4 4 4 5
4 4 6 3 4 6 9 10 6 7 7 6 5 4 6 5 6 7 10 12 13 12 11 11 10 9 8 7 7 7 7 7 7 7 6 6 5 5 5 4 4 4 4 4
3 3 5 5 6 3 5 4 5 8 7 7 6 6 4 7 7 8 10 12 12 12 11 11 10 9 8 7 7 7 7 7 6 6 5 5 6 5 5 5 6 5 5 5
4 5 5 7 6 4 6 6 7 7 7 7 5 3 5 2 5 7 9 11 12 12 12 11 10 9 9 7 7 7 7 6 6 6 6 6 5 6 6 5 6 5 5 5
2 4 4 3 2 1 4 4 6 7 6 6 5 4 5 3 4 7 9 10 12 12 11 11 10 9 8 7 7 7 6 6 5 6 6 6 5 6 6 6 6 5 5 5
2 4 5 7 7 6 4 4 5 5 4 5 6 4 6 6 7 7 9 10 11 11 11 10 9 8 7 7 7 6 6 6 5 5 6 6 6 6 6 6 6 6 6 6
4 4 5 4 1 2 4 3 4 7 6 5 3 3 5 5 6 7 9 10 11 11 10 10 8 8 7 7 6 6 6 6 5 6 6 6 6 5 5 6 6 6 6 6
4 3 2 1 1 1 1 1 2 3 5 5 1 1 4 4 5 7 8 10 10 11 10 10 9 8 8 7 6 5 5 5 4 5 6 6 6 5 5 5 5 6 6 7
1 2 4 4 3 2 1 1 1 1 2 1 1 2 5 5 6 7 8 9 10 10 10 10 9 8 8 7 6 5 5 5 4 5 6 6 6 5 5 5 5 6 7 6
3 4 4 4 4 4 1 3 2 1 2 3 2 3 6 5 5 6 7 8 9 10 10 10 9 8 8 7 6 6 5 5 5 6 6 6 6 6 5 5 6 6 6 6
2 4 3 4 5 5 3 3 2 2 3 4 4 5 5 6 5 5 6 7 8 9 9 9 9 9 8 7 7 6 6 5 5 5 6 6 5 5 5 5 5 5 5 6
1 3 3 4 5 3 4 2 1 2 2 3 4 6 7 8 7 6 5 6 7 8 8 8 8 9 8 8 7 6 6 5 5 5 5 5 5 5 5 5 5 5 5 6
2 3 4 3 4 1 4 3 1 4 3 3 4 6 7 7 4 5 6 7 8 8 8 9 9 9 8 7 7 7 6 6 6 5 5 5 4 4 5 5 5 4 4 5
4 3 3 3 2 3 5 2 3 3 4 4 4 4 4 2 4 9 9 9 9 9 10 9 9 9 8 7 7 7 7 6 6 5 5 5 5 4 4 4 4 3 3 4
2 2 2 3 3 3 4 0 2 5 4 4 5 5 5 7 9 10 10 10 10 10 10 10 9 8 7 7 7 8 7 6 6 6 6 6 4 3 4 4 3 3 3 4
1 3 2 3 4 6 4 4 5 3 4 5 6 7 7 8 9 10 10 10 10 10 10 9 9 9 7 6 6 8 7 7 6 6 6 5 5 4 4 3 3 3 2 3
3 0 1 3 5 5 4 4 4 4 5 6 7 8 8 9 10 10 9 9 9 10 9 9 9 9 8 7 7 7 7 7 7 6 6 5 4 4 4 2 2 2 2 3
2 3 2 3 4 5 4 4 5 5 6 8 8 8 9 10 11 10 9 9 9 9 8 8 8 8 8 8 8 7 7 7 7 6 5 5 4 4 3 3 3 3 4 4
1 1 1 2 4 2 5 5 6 6 7 8 9 9 8 9 10 11 9 9 9 9 8 8 8 8 8 8 8 7 7 7 7 6 5 4 4 3 3 4 4 4 3 2
Wind_Direction
189 209 197 180 220 209 184 183 167 139 151 195 177 161 158 169 182 175 173 168 157 133 118 113 106 100 93 86 85 84 76 76 80 95 110 110 96 90 82 73 60 47 39 33
193 197 158 162 177 195 195 189 162 143 140 198 168 165 166 181 194 187 181 173 160 143 131 118 110 101 94 87 82 84 83 76 70 76 80 88 88 78 71 64 59 45 41 21
204 120 153 184 183 197 201 207 178 155 148 168 176 181 180 184 193 189 186 174 165 156 141 130 112 97 94 86 77 73 71 71 65 66 90 110 110 106 86 65 57 39 31 25
191 146 185 198 195 208 197 193 186 176 196 182 208 214 178 179 188 192 187 177 164 147 141 132 119 105 94 87 82 77 73 65 59 58 67 84 88 89 73 58 56 45 32 22
170 175 196 203 195 218 186 161 196 208 227 218 210 245 162 174 195 196 190 178 160 150 144 134 124 112 99 90 84 77 73 68 64 61 62 62 71 77 79 72 68 47 46 31
168 182 219 207 182 198 160 168 181 218 227 229 214 245 189 179 202 190 182 173 159 151 141 131 122 112 101 92 88 83 77 70 67 67 67 64 70 70 68 60 55 52 54 43
186 183 182 199 186 179 200 208 206 211 219 222 171 240 146 104 143 180 169 164 157 150 142 135 128 115 101 91 84 79 77 71 67 71 72 72 74 77 68 56 55 40 40 38
196 184 175 195 225 207 212 234 247 251 240 199 177 225 103 92 102 146 151 151 151 147 143 138 128 119 110 104 96 88 83 76 71 73 76 73 70 69 67 53 49 48 38 36
218 168 142 171 226 241 213 232 278 276 265 251 205 168 132 134 131 137 143 148 152 148 144 135 127 120 114 106 96 93 91 85 76 72 74 73 68 64 66 64 52 53 44 40
264 207 166 166 196 206 267 230 223 245 250 245 213 209 167 159 158 157 159 156 151 145 139 132 127 121 114 109 103 95 90 85 81 78 71 72 70 68 65 58 53 46 44 42
250 232 183 188 219 200 191 211 240 254 271 269 243 130 54 122 164 167 161 156 151 145 141 137 131 125 119 117 112 102 93 87 80 75 72 68 67 66 63 57 52 45 41 40
239 259 217 182 105 282 245 245 245 252 244 264 281 94 58 79 130 143 143 145 144 143 141 136 131 129 127 121 109 101 95 89 84 82 78 71 68 66 65 61 53 49 47 46
212 231 214 186 179 185 209 227 252 268 262 258 263 115 91 100 111 124 132 135 139 141 139 136 135 134 129 122 116 110 106 99 95 90 85 78 72 70 65 62 56 52 53 53
263 247 259 257 160 168 199 210 234 255 258 259 274 126 123 118 121 130 138 142 143 144 143 142 140 137 130 124 118 114 108 103 97 92 85 80 72 67 65 63 61 56 57 58
254 221 205 182 122 189 220 247 246 265 295 294 328 83 100 122 136 138 141 144 146 149 149 147 144 142 137 131 125 116 109 106 105 99 90 84 80 73 68 64 63 63 61 60
234 206 181 177 164 164 127 351 302 306 322 309 151 88 84 100 122 137 147 153 155 156 153 149 146 148 144 139 135 131 121 114 109 96 91 87 83 80 74 70 68 69 66 61
190 205 210 195 185 211 205 355 341 23 355 313 322 91 116 126 135 149 155 158 158 154 151 151 151 150 145 141 138 135 124 117 109 99 95 91 85 82 79 77 73 73 71 68
205 221 230 204 210 227 85 58 46 73 44 42 80 110 125 122 122 128 142 149 147 147 150 152 149 145 142 138 135 130 123 118 113 107 101 96 93 91 86 82 76 73 73 69
275 249 238 232 216 173 143 124 310 279 94 64 109 123 125 124 127 117 120 130 135 142 142 142 143 144 141 135 135 133 131 126 120 110 103 98 96 96 91 84 78 73 76 73
164 237 242 234 241 210 92 66 327 253 155 112 130 140 147 172 189 131 130 126 125 127 131 137 141 140 136 135 142 141 133 130 121 112 106 101 100 96 92 85 83 82 86 88
186 196 226 234 225 97 56 43 232 249 78 117 130 135 156 156 58 114 131 131 131 131 132 136 138 137 137 145 148 137 129 124 123 121 113 105 101 102 97 90 90 95 94 91
268 207 201 237 224 101 57 91 8 48 85 113 117 123 114 96 106 121 129 132 134 132 132 134 136 133 137 145 144 132 124 123 126 119 112 107 105 99 96 94 91 96 107 115
352 4 13 14 53 74 70 57 61 81 106 112 122 123 122 123 128 130 132 134 135 135 136 138 137 134 134 141 142 131 128 133 131 125 119 114 108 96 93 95 103 117 134 129
128 85 141 122 108 103 97 94 93 94 104 116 122 128 129 131 134 135 134 135 138 140 141 144 142 138 137 139 137 132 134 138 138 132 128 128 122 114 110 112 101 101 105 106
111 169 168 137 125 128 112 103 109 108 111 117 123 130 133 137 140 139 137 139 139 140 143 145 144 143 142 141 139 140 141 145 141 137 136 137 128 117 117 99 55 38 57 35
148 196 238 112 129 130 119 125 128 128 126 128 132 133 135 141 140 140 139 140 141 142 145 148 147 145 143 141 141 144 148 151 149 148 150 151 142 136 145 137 130 75 36 64